ジャック彗星

C/2017 K6 ( Jacques )

English version
Home page
Updated on May 21, 2018

---------------------------------------------------------------------

・ プロフィール

発見日 2017年5月29日
発見光度 17.5等
発見者 Cristovao Jacques (SONEAR Observatory at Oliveira)

・ 写真集

・ 軌道要素

Epoch 2018 Jan. 2.0 TT = JDT 2458120.5
T 2018 Jan. 3.13777 TT                                  MPCW
q   2.0027582            (2000.0)            P               Q
z  +0.0008906      Peri.  303.83890     +0.49565855     -0.22851035
 +/-0.0000014      Node    85.05439     +0.75134617     +0.59675892
e   0.9982163      Incl.   57.25102     -0.43566218     +0.76919556
From 349 observations 2017 May 29-2018 Mar. 24, mean residual 0".6.

・ 星図

・ 光度変化

        m1 = 8.5 + 5 logΔ + 12.5 log r(t - 30)

---------------------------------------------------------------------

軌道要素はM.P.E.C. 2018-F152に掲載されたものです。
星図はステラナビゲータ Ver.10 (アストロアーツ) で作成したものです。
光度グラフはComet for Windowsで作成したものです。

---------------------------------------------------------------------

Copyright(C) Seiichi Yoshida (comet@aerith.net). All rights reserved.